Terminal Aerodrome Forecast
Issued by NWS Mobile, AL

Home | Current Version | Previous Version | Text Only | Print | Product List | Glossary On
Versions: 1 2 3 4 5 6 7 8 9 10 11 12 13 14 15 16 17 18 19 20 21 22 23
000
FTUS44 KMOB 011100
TAFPNS
TAF
KPNS 011127Z 0112/0212 00000KT P6SM BKN150 OVC250
     FM011900 25007KT P6SM VCTS BKN050CB BKN120
     FM020000 30006KT P6SM SCT050 BKN250=

USA.gov is the U.S. government's official web portal to all federal, state and local government web resources and services.